Location: C.E.K. Mees Observatory
(42.7003°N, 77.4088°W)
Time: 07:45:52
(UTC-05:00)

N. Korean satellite - Pass Details

Date: 07 October 2017
Orbit: 461 x 513 km, 97.2° (Epoch: 16 December)

Event Time Altitude Azimuth Distance (km) Brightness Sun altitude
Rises 19:01:38 0° 161° (SSE) 2,574 10.1 -4.8°
Reaches altitude 10° 19:03:44 10° 159° (SSE) 1,688 9.1 -5.2°
Maximum altitude 19:07:20 70° 77° (ENE) 525 6.5 -5.8°
Drops below altitude 10° 19:10:55 10° 353° (N) 1,671 9.4 -6.5°
Sets 19:12:58 0° 351° (N) 2,546 10.3 -6.9°
